Regional Weather Roundup
Issued by NWS State College, PA

Home | Current Version | Previous Version | Graphics & Text | Print | Product List | Glossary Off
Versions: 1 2 3 4 5 6 7 8 9 10 11 12 13 14 15 16 17 18 19 20 21 22 23 24 25 26 27 28 29 30 31 32 33 34 35 36 37 38 39 40 41 42 43 44 45 46 47 48 49 50

000
ASUS41 KCTP 092003
RWRCTP

REGIONAL WEATHER ROUNDUP
NATIONAL WEATHER SERVICE STATE COLLEGE PA
300 PM EST FRI DEC 09 2016

Note: "fair" indicates few or no clouds below 12,000 feet with no
significant weather and/or obstructions to visibility.

* = STATION THAT DOES NOT REPORT PRECIPITATION /E.G. RAIN...SNOW...ETC/
    THUNDER OR FOG.

PAZ002>004-007>009-013>016-020>023-029>032-092100-
WESTERN PENNSYLVANIA

CITY           SKY/WX    TMP DP  RH WIND       PRES   REMARKS
ERIE           CLOUDY    32  18  56 W16G30    30.29R
MEADVILLE      LGT SNOW  26  22  84 W12G20    30.27S FOG
FRANKLIN*        N/A     25  19  80 W12       30.28S WCI  14
NEW CASTLE     CLOUDY    28  20  71 SW12      30.34R
BEAVER COUNTY  NOT AVBL
BUTLER*        CLOUDY    27  18  69 W16       30.35R WCI  14
PITTSBURGH INT CLOUDY    27  18  69 W9        30.35R
PITTSBURGH     CLOUDY    26  16  65 W16       30.34R WCI  14
INDIANA*       CLOUDY    27  19  74 W9        30.32R
LATROBE        CLOUDY    27  18  69 W14G25    30.34S
WASHINGTON CO* CLOUDY    27  18  69 W14       30.37R
$$

PAZ004>006-010>012-017>019-024>028-033>037-041-042-045-046-049>053-092100-
CENTRAL PENNSYLVANIA

CITY           SKY/WX    TMP DP  RH WIND       PRES   REMARKS
BRADFORD       SNOW      23  21  92 NW9       30.16R VSB 1/4 WCI  13
DUBOIS         CLOUDY    26  17  68 W14G28    30.22R WCI  14
CLEARFIELD     FLURRIES  28  19  69 W12G25    30.23R
JOHNSTOWN      LGT SNOW  21  17  84 W10G21    30.22R FOG     WCI  10
ALTOONA        LGT SNOW  27  20  75 W13       30.27S
STATE COLLEGE  LGT SNOW  28  19  69 SW14G21   30.23R
WILLIAMSPORT   PTSUNNY   33  24  69 W9        30.22R
SELINSGROVE    CLOUDY    34  21  59 W12G22    30.24R
FT INDIANTOWN  SUNNY     35  15  45 W16G29    30.22R
CAPITAL CITY   CLOUDY    35  15  44 NW15G25   30.27R
HARRISBURG     PTSUNNY   35  18  49 NW28G36   30.26R
YORK           MOSUNNY   34  17  50 W15G28    30.26R
$$

PAZ038>040-043-044-047-048-054-055-060>062-067>071-092100-
EASTERN PENNSYLVANIA

CITY           SKY/WX    TMP DP  RH WIND       PRES   REMARKS
SCRANTON       CLOUDY    34  16  47 N16       30.15R
MOUNT POCONO   MOSUNNY   27  11  51 NW17G32   30.05S WCI  14
ALLENTOWN      CLOUDY    35  20  54 NW12      30.18R
QUAKERTOWN*    CLOUDY    36  18  48 W8        30.18R
READING        PTSUNNY   37  16  42 W20G28    30.20R
LANCASTER      MOSUNNY   35  18  49 W22G37    30.23R
COATESVILLE    CLOUDY    36  18  48 NW18      30.22R
POTTSTOWN      PTSUNNY   35  17  47 W10G21    30.22R
BLUE BELL      CLOUDY    36  19  51 W10G16    30.20R
DOYLESTOWN     CLOUDY    37  17  44 NW16G25   30.17R
WILLOW GROVE   NOT AVBL
NORTH PHILA    CLOUDY    39  19  44 W16G26    30.22R
PHILADELPHIA   PTSUNNY   38  15  39 NW18G25   30.24R
$$



USA.gov is the U.S. government's official web portal to all federal, state and local government web resources and services.